Погода в Боровом

Украина / Ровненская область     51°37′23″N   25°51′09″E
темп.,
°C
ветер,
м/с
пор.,
м/с
влажн.,
%
обл.,
%
осадки,
мм/ч
давл.,
гПа
погр.,
м
27 ноября, сб
сб2723:00+4юв51380100 0.0 996799
02:00+5юв51191100 1.4 992939
05:00+5ююз4989100 0.4 991653
08:00+6ююз51089100 0.9 990881
11:00+4юз61179100 0.1 994999
14:00+3зюз61179100 0.1 996979
17:00+3зюз41077100 0.0 999950
20:00+3зюз387316 0.0 1000807
28 ноября, вс
вс2823:000ююз2488100 0.0 100282
02:000ю2491100 0.0 100282
05:00+2ююв2384100 0.0 1001109
08:00+3юв2382100 0.0 100188
11:00+4ююв2796100 0.7 1001256
14:00+5вюв3798100 3.9 1000236
17:00+5юв3795100 1.2 998295
20:00+5юв2693100 1.4 998183
29 ноября, пн
пн2923:00+4юв3794100 0.0 996129
02:00+4юв3991100 0.0 994165
05:00+5юв3988100 0.0 991206
08:00+5юв2790100 0.0 989186
11:00+5зюз4994100 1.5 989550
14:00+2з71284100 2.3 990897
17:00+1з71382100 0.0 9911069
20:00+1зюз71593100 0.1 9921376
30 ноября, вт
вт3023:00+2з81680100 0.3 9931515
02:00+1з81684100 0.4 9941454
05:00+1з9178591 0.2 9951363
08:00+1з81681100 0.3 9981372
11:00+1з7127586 0.0 10011112
14:00+1з61169100 0.1 10021206
17:00−1з5117799 0.0 1002950
20:00−1зюз5118195 0.1 1002892
1 декабря, ср
ср123:00−1юз41085100 0.0 1001766
02:00−1юз41295100 0.3 1000637
05:000юз4119590 1.1 999708
08:00+1з4795100 1.6 999896
11:00+1з3997100 0.8 1002398
14:00+1зюз3997100 1.1 1002464
17:00+1юз4997100 0.2 1003644
20:00+1ююз41091100 0.2 1001405